Regional Weather Roundup
Issued by NWS

Home | Current Version | Previous Version | Text Only | Print | Product List | Glossary Off
Versions: 1 2 3 4 5 6 7 8 9 10 11 12 13 14 15 16 17 18 19 20 21 22 23 24 25 26 27 28 29 30 31 32 33 34 35 36 37 38 39 40 41 42 43 44 45 46 47 48 49 50

000
ASUS43 KMKX 270211
RWRWI

WISCONSIN REGIONAL WEATHER ROUNDUP
NATIONAL WEATHER SERVICE MILWAUKEE/SULLIVAN WI
900 PM CDT SUN APR 26 2015

NOTE: "FAIR" INDICATES FEW OR NO CLOUDS BELOW 12,000 FEET WITH NO
SIGNIFICANT WEATHER AND/OR OBSTRUCTIONS TO VISIBILITY.

WIZ001-002-006>008-014>016-023>028-270300-
NORTHWEST WISCONSIN

CITY           SKY/WX    TMP DP  RH WIND       PRES   REMARKS
SUPERIOR ARPT  CLEAR     35  30  82 N5        30.18R WCI  31
ASHLAND        CLEAR     36  33  89 N5        30.17R WCI  32
HAYWARD        CLEAR     44  27  51 CALM      30.14R
SIREN          CLEAR     51  22  32 E3        30.14R
CUMBERLAND     CLEAR     46  27  46 NE8       30.13R
RICE LAKE      CLEAR     47  27  45 N9        30.14R
CHETEK         CLEAR     50  28  41 N5        30.12R
LADYSMITH      CLEAR     47  24  40 N7        30.13S
EAU CLAIRE     CLEAR     53  23  31 N12       30.09R
MENOMONIE      CLEAR     55  18  24 N8        30.10R
NEW RICHMOND   CLEAR     53  19  27 NE13      30.12R
OSCEOLA        CLEAR     52  26  36 NE8       30.15R
$$

WIZ003>005-009-010-017-018-270300-
NORTH CENTRAL WISCONSIN

CITY           SKY/WX    TMP DP  RH WIND       PRES   REMARKS
MANITOWISH WTR CLEAR     43  25  49 N5        30.13R
ARBOR VITAE    CLEAR     42  27  56 N5        30.12R
WOODRUFF       CLEAR     42  27  56 N5        30.12R
RHINELANDER    CLEAR     45  29  53 N7        30.11R
EAGLE RIVER    CLEAR     41  27  57 N5        30.11R
LAND O LAKES   CLEAR     42  29  59 N5        30.13R
PHILLIPS       CLEAR     44  26  50 N5        30.11S
TOMAHAWK       CLEAR     46  26  45 CALM      30.11R
MEDFORD        CLEAR     46  28  47 N8        30.09R
MERRILL        CLEAR     47  27  44 N9        30.09R
$$

WIZ029-030-035-036-043>047-270300-
CENTRAL WISCONSIN

CITY           SKY/WX    TMP DP  RH WIND       PRES   REMARKS
WAUSAU         CLEAR     51  25  36 N7        30.05R
MOSINEE        CLEAR     52  25  35 N8        30.07
MARSHFIELD     CLEAR     53  26  35 N10       30.07R
STEVENS POINT  CLEAR     50  24  36 N6        30.06R
WAUPACA        CLEAR     51  27  38 NE7       30.06R
WAUTOMA        CLEAR     52  26  36 NE7       30.05R
WISC RAPIDS    CLEAR     54  22  28 N12       30.05R
CAMP DOUGLAS   CLEAR     44  25  46 NW6       30.03R
$$

WIZ011>013-019>022-031-037>040-048>050-270300-
NORTHEAST WISCONSIN

CITY           SKY/WX    TMP DP  RH WIND       PRES   REMARKS
ANTIGO         CLEAR     46  29  52 N10       30.08R
SHAWANO        CLEAR     46  32  58 CALM      30.07R
OCONTO         CLEAR     44  33  67 E3        30.07R
STURGEON BAY   CLOUDY    45  28  53 N13G20    30.10R
GREEN BAY      CLEAR     48  33  56 NE10      30.07R
MANITOWOC      CLEAR     42  32  67 NE6       30.07R
APPLETON       CLEAR     50  28  43 NE9       30.05R
CLINTONVILLE   CLEAR     46  30  53 E3        30.06R
OSHKOSH        CLEAR     47  30  51 E9        30.05R
$$

WIZ032>034-041-042-053>061-270300-
SOUTHWEST WISCONSIN

CITY           SKY/WX    TMP DP  RH WIND       PRES   REMARKS
LA CROSSE      CLEAR     53  28  38 N6        30.05R
SPARTA         CLEAR     47  24  41 CALM      30.06R
VIROQUA        CLEAR     52  23  32 N3        30.05R
BOSCOBEL       CLEAR     47  30  51 CALM      30.05R
PRAIRIE DU CHI CLEAR     51  29  42 CALM      30.04S
PLATTEVILLE    CLEAR     50  29  45 CALM      30.03S
$$

WIZ056-057-062-063-064-067-068-270300-
SOUTH CENTRAL WISCONSIN

CITY           SKY/WX    TMP DP  RH WIND       PRES   REMARKS
REEDSBURG      CLEAR     52  26  35 NW3       30.02S
BARABOO/DELLS  CLEAR     53  20  28 CALM      30.02S
LONE ROCK      CLEAR     47  31  53 NW5       30.03R
MINERAL POINT  CLEAR     54  19  26 NW3       30.03S
MADISON        PTCLDY    47  29  49 CALM      30.01R
MIDDLETON      CLEAR     50  29  44 NW3       30.02R
WATERTOWN      CLEAR     46  28  48 E9G16     30.03R
MONROE         CLEAR     54  27  35 CALM      30.01S
JANESVILLE     CLEAR     48  27  43 SE5       30.01S
$$

WIZ051-052-058>065-066-070>072-270300-
SOUTHEAST WISCONSIN

CITY           SKY/WX    TMP DP  RH WIND       PRES   REMARKS
MILWAUKEE      PTCLDY    42  28  57 N10       30.06R
WAUKESHA       CLEAR     43  25  49 E9        30.06R
MILWAUKEE/TIMM CLEAR     43  25  49 NE8       30.06R
RACINE         CLEAR     42  29  59 N13       30.05R
BURLINGTON     CLEAR     40  24  52 NE3       30.04R
KENOSHA        CLEAR     43  27  53 N9        30.04R
FOND DU LAC    CLEAR     45  27  49 E9        30.05R
SHEBOYGAN      CLEAR     39  30  70 NE10      30.06R WCI  32
WEST BEND      CLEAR     41  27  56 NE5       30.05S
JUNEAU         CLEAR     45  29  53 E9        30.06R
$$

LSZ147-162-270300-
LAKE SUPERIOR

STATION/POSITION TIME  TEMP    WIND        PRES    WAVE
                       AIR SEA DIR/SP/G            HT/PER
                 (UTC) (F)     (DEG/KT/KT) (MB)    (FT/S)
W MID LAKE BUOY  0150   35 35  320/  4/  6 1023.1S   1
DEVILS ISLAND    0200   36      20/  5/  5 1022.8R
PORT WING        0140   38      30/  7/  9 1021.3S
SAXON HARBOR     0100   40        CALM     1021.0F
$$

LMZ867-665-643>646-270300-
LAKE MICHIGAN

STATION/POSITION TIME  TEMP    WIND        PRES    WAVE
                       AIR SEA DIR/SP/G            HT/PER
                 (UTC) (F)     (DEG/KT/KT) (MB)    (FT/S)
CHAMBERS ISLAND  0100   41      10/  9/ 10 1018.6R
NORTHPORT PIER   0100   42     340/ 12/ 15 1018.3R
SISTER BAY       0147   45      10/ 13/ 18   N/A
KEWAUNEE LAKESHO 0100   42      30/ 10/ 14 1017.0R
SHEBOYGAN LAKESH 0200   42      10/ 13/ 14 1018.8R
PORT WASHINGTON  0140   45     360/  5/ 12 1018.3R
MILWAUKEE LAKESH 0100   44      10/ 11/ 14   N/A
KENOSHA   LAKESH 0200   44      10/ 19/ 22 1016.9R
$$

TC  - TEMPERATURE IN CELSIUS
VSB - VISIBILITY IN STATUTE MILES
WCI - WIND CHILL INDEX
HX  - HEAT INDEX




USA.gov is the U.S. government's official web portal to all federal, state and local government web resources and services.